• In Germany
  • List of Countries
  • For 7 days
  • Water Temperature
  • Satellite Maps
  • Weather Map
  • Weather Widgets
  • user-avatar
    Login

    Hourly Weather Satif

    Today, 19 October, Friday

    Time Temperature Precipitation Wind Pressure Humidity
    00:00 +13°C° 0 mm 0 mps 667 mmHg 90%
    01:00 +12°C° 0 mm 0 mps 668 mmHg 90%
    02:00 +12°C° 0 mm 0 mps 668 mmHg 91%
    03:00 +12°C° 0 mm 0 mps 668 mmHg 91%
    04:00 +12°C° 0 mm 0 mps 668 mmHg 92%
    05:00 +12°C° 0 mm 0 mps 668 mmHg 92%
    06:00 +12°C° 0 mm 0 mps 669 mmHg 93%
    07:00 +14°C° 0 mm 1 mps 670 mmHg 87%
    08:00 +15°C° 0 mm 1 mps 670 mmHg 81%
    09:00 +16°C° 0 mm 1 mps 671 mmHg 75%
    10:00 +18°C° 0 mm 1 mps 672 mmHg 70%
    11:00 +19°C° 0 mm 1 mps 672 mmHg 64%
    12:00 +20°C° 0 mm 1 mps 672 mmHg 58%
    13:00 +21°C° 0 mm 1 mps 672 mmHg 56%
    14:00 +21°C° 0 mm 1 mps 672 mmHg 54%
    15:00 +21°C° 0 mm 1 mps 672 mmHg 52%
    16:00 +20°C° 0 mm 1 mps 672 mmHg 57%
    17:00 +20°C° 0 mm 1 mps 672 mmHg 62%
    18:00 +18°C° 0 mm 2 mps 672 mmHg 67%
    19:00 +18°C° 0 mm 1 mps 673 mmHg 69%
    20:00 +18°C° 0 mm 1 mps 673 mmHg 71%
    21:00 +18°C° 0 mm 1 mps 673 mmHg 73%
    22:00 +16°C° 0 mm 1 mps 673 mmHg 74%
    23:00 +16°C° 0 mm 1 mps 673 mmHg 75%

    Tomorrow, 20 October, Saturday

    Time Temperature Precipitation Wind Pressure Humidity
    00:00 +16°C° 0 mm 1 mps 673 mmHg 75%
    01:00 +15°C° 0 mm 1 mps 673 mmHg 75%
    02:00 +15°C° 0 mm 1 mps 673 mmHg 75%
    03:00 +15°C° 0 mm 1 mps 673 mmHg 75%
    04:00 +15°C° 0 mm 1 mps 673 mmHg 74%
    05:00 +15°C° 0 mm 1 mps 673 mmHg 74%
    06:00 +15°C° 0 mm 1 mps 673 mmHg 73%
    07:00 +16°C° 0 mm 1 mps 674 mmHg 66%
    08:00 +19°C° 0 mm 1 mps 675 mmHg 59%
    09:00 +21°C° 0 mm 1 mps 676 mmHg 52%
    10:00 +22°C° 0 mm 1 mps 676 mmHg 48%
    11:00 +22°C° 0 mm 1 mps 676 mmHg 44%
    12:00 +23°C° 0 mm 2 mps 676 mmHg 40%
    13:00 +23°C° 0 mm 2 mps 676 mmHg 40%
    14:00 +24°C° 0 mm 2 mps 676 mmHg 40%
    15:00 +24°C° 0 mm 2 mps 676 mmHg 39%
    16:00 +23°C° 0 mm 2 mps 675 mmHg 45%
    17:00 +21°C° 0 mm 2 mps 675 mmHg 50%
    18:00 +21°C° 0 mm 1 mps 675 mmHg 55%
    19:00 +20°C° 0 mm 1 mps 675 mmHg 57%
    20:00 +19°C° 0 mm 1 mps 676 mmHg 59%
    21:00 +19°C° 0 mm 1 mps 676 mmHg 61%
    22:00 +18°C° 0 mm 1 mps 676 mmHg 62%
    23:00 +18°C° 0 mm 1 mps 675 mmHg 63%

    Day after tomorrow, 21 October, Sunday

    Time Temperature Precipitation Wind Pressure Humidity
    00:00 +18°C° 0 mm 1 mps 675 mmHg 64%
    01:00 +16°C° 0 mm 1 mps 675 mmHg 65%
    02:00 +16°C° 0 mm 1 mps 675 mmHg 65%
    03:00 +16°C° 0 mm 1 mps 675 mmHg 66%
    04:00 +15°C° 0 mm 1 mps 675 mmHg 66%
    05:00 +15°C° 0 mm 1 mps 674 mmHg 67%
    06:00 +15°C° 0 mm 1 mps 674 mmHg 67%
    07:00 +16°C° 0 mm 1 mps 675 mmHg 59%
    08:00 +19°C° 0 mm 1 mps 676 mmHg 52%
    09:00 +21°C° 0 mm 1 mps 677 mmHg 44%
    10:00 +22°C° 0 mm 1 mps 677 mmHg 41%
    11:00 +23°C° 0 mm 1 mps 677 mmHg 38%
    12:00 +24°C° 0 mm 1 mps 677 mmHg 35%
    13:00 +24°C° 0 mm 2 mps 676 mmHg 36%
    14:00 +24°C° 0 mm 2 mps 676 mmHg 37%
    15:00 +24°C° 0 mm 2 mps 676 mmHg 38%
    16:00 +23°C° 0.2 mm 2 mps 675 mmHg 44%
    17:00 +20°C° 0.2 mm 2 mps 675 mmHg 50%
    18:00 +20°C° 0.2 mm 1 mps 675 mmHg 56%
    19:00 +20°C° 0.1 mm 1 mps 675 mmHg 59%
    20:00 +19°C° 0.1 mm 1 mps 675 mmHg 62%
    21:00 +19°C° 0.1 mm 1 mps 675 mmHg 64%
    22:00 +18°C° 0 mm 1 mps 675 mmHg 66%
    23:00 +16°C° 0 mm 0 mps 675 mmHg 67%

    22 October, Monday

    Time Temperature Precipitation Wind Pressure Humidity
    00:00 +16°C° 0 mm 0 mps 675 mmHg 68%
    01:00 +15°C° 0 mm 0 mps 674 mmHg 68%
    02:00 +15°C° 0 mm 0 mps 674 mmHg 68%
    03:00 +15°C° 0 mm 0 mps 674 mmHg 69%
    04:00 +14°C° 0 mm 0 mps 674 mmHg 69%
    05:00 +14°C° 0 mm 0 mps 673 mmHg 69%
    06:00 +14°C° 0 mm 0 mps 673 mmHg 69%
    07:00 +15°C° 0 mm 0 mps 674 mmHg 62%
    08:00 +19°C° 0 mm 1 mps 675 mmHg 55%
    09:00 +21°C° 0 mm 1 mps 676 mmHg 47%
    10:00 +22°C° 0 mm 1 mps 675 mmHg 45%
    11:00 +21°C° 0 mm 2 mps 675 mmHg 43%
    12:00 +23°C° 0 mm 2 mps 675 mmHg 40%
    13:00 +23°C° 0.1 mm 2 mps 675 mmHg 42%
    14:00 +22°C° 0.1 mm 3 mps 675 mmHg 44%
    15:00 +22°C° 0.1 mm 3 mps 675 mmHg 46%
    16:00 +20°C° 0 mm 3 mps 674 mmHg 54%
    17:00 +19°C° 0 mm 3 mps 674 mmHg 63%
    18:00 +18°C° 0 mm 3 mps 674 mmHg 71%
    19:00 +17°C° 0 mm 3 mps 674 mmHg 75%
    20:00 +16°C° 0 mm 2 mps 675 mmHg 78%
    21:00 +16°C° 0 mm 2 mps 675 mmHg 82%
    22:00 +15°C° 0 mm 2 mps 675 mmHg 83%
    23:00 +15°C° 0 mm 2 mps 675 mmHg 85%

    23 October, Tuesday

    Time Temperature Precipitation Wind Pressure Humidity
    00:00 +14°C° 0 mm 2 mps 674 mmHg 86%
    01:00 +14°C° 0 mm 2 mps 674 mmHg 86%
    02:00 +14°C° 0 mm 2 mps 674 mmHg 86%
    03:00 +14°C° 0 mm 2 mps 674 mmHg 85%
    04:00 +13°C° 0 mm 2 mps 674 mmHg 85%
    05:00 +13°C° 0 mm 2 mps 674 mmHg 85%
    06:00 +13°C° 0 mm 2 mps 674 mmHg 85%
    07:00 +13°C° 0 mm 3 mps 674 mmHg 77%
    08:00 +14°C° 0 mm 3 mps 675 mmHg 70%
    09:00 +15°C° 0 mm 4 mps 675 mmHg 62%
    10:00 +15°C° 0 mm 4 mps 675 mmHg 57%
    11:00 +16°C° 0 mm 5 mps 675 mmHg 52%
    12:00 +17°C° 0 mm 6 mps 675 mmHg 47%
    13:00 +16°C° 0.1 mm 6 mps 674 mmHg 50%
    14:00 +16°C° 0.1 mm 6 mps 674 mmHg 54%
    15:00 +15°C° 0.1 mm 6 mps 674 mmHg 57%
    16:00 +15°C° 0.1 mm 5 mps 674 mmHg 63%
    17:00 +14°C° 0.1 mm 4 mps 674 mmHg 68%
    18:00 +13°C° 0.1 mm 4 mps 674 mmHg 73%
    19:00 +13°C° 0.2 mm 4 mps 674 mmHg 76%
    20:00 +12°C° 0.2 mm 3 mps 674 mmHg 78%
    21:00 +12°C° 0.2 mm 3 mps 674 mmHg 80%
    22:00 +12°C° 0.2 mm 4 mps 674 mmHg 79%
    23:00 +11°C° 0.2 mm 4 mps 674 mmHg 79%

    24 October, Wednesday

    Time Temperature Precipitation Wind Pressure Humidity
    00:00 +10°C° 0.2 mm 5 mps 674 mmHg 78%
    01:00 +11°C° 0.1 mm 4 mps 673 mmHg 79%
    02:00 +10°C° 0.1 mm 4 mps 673 mmHg 80%
    03:00 +9°C° 0.1 mm 3 mps 673 mmHg 80%
    04:00 +9°C° 0.1 mm 3 mps 673 mmHg 80%
    05:00 +8°C° 0.1 mm 4 mps 673 mmHg 80%
    06:00 +8°C° 0.1 mm 4 mps 673 mmHg 80%
    07:00 +10°C° 0.1 mm 4 mps 673 mmHg 76%
    08:00 +10°C° 0.1 mm 5 mps 673 mmHg 72%
    09:00 +10°C° 0.1 mm 6 mps 674 mmHg 67%
    10:00 +12°C° 0.1 mm 5 mps 674 mmHg 68%
    11:00 +12°C° 0.1 mm 5 mps 674 mmHg 68%
    12:00 +13°C° 0.1 mm 5 mps 674 mmHg 69%
    13:00 +13°C° 0.1 mm 6 mps 673 mmHg 67%
    14:00 +13°C° 0.1 mm 6 mps 673 mmHg 65%
    15:00 +13°C° 0.1 mm 6 mps 673 mmHg 63%
    16:00 +11°C° 0.1 mm 6 mps 673 mmHg 68%
    17:00 +10°C° 0.1 mm 5 mps 673 mmHg 72%
    18:00 +11°C° 0.1 mm 4 mps 674 mmHg 77%
    19:00 +11°C° 0.1 mm 4 mps 674 mmHg 78%
    20:00 +10°C° 0.1 mm 4 mps 674 mmHg 79%
    21:00 +10°C° 0.1 mm 4 mps 674 mmHg 80%
    22:00 +10°C° 0.1 mm 4 mps 674 mmHg 82%
    23:00 +10°C° 0.1 mm 3 mps 674 mmHg 83%
    Show more